Showing default

KUIPER-00123, 65952

Orbit data source: Space-Track

KUIPER-00123, 65952 is a payload satellite owned by Kuiper Systems (US) in LEO that was launched on Tue, 14 Oct 2025 UTC via an FALCON 9 launch vehicle from the Air Force Eastern Test Range (AFETR). Payload-class satellites include a variety of spacecraft equipped with specific instruments for various scientific and technological missions. These include communications satellites like Starlink; space stations such as the ISS; scientific satellites like the Hubble; Earth observation satellites from companies like Planet Labs, Umbra, and HawkEye 360; GPS; miniature CubeSats for education and research; and military/defense satellites.

Loading next visibility...
Identifier
65952, 2025-228F
Orbit
LEO
Country
Flag of USUS
Related business
Manufacturer
Kuiper Systems
Mission
Operational Commercial Communications
Bus & Motor
KUIPER, Unknown motor
Mass
~490 kg wet, ~490 kg dry
Launch date (UTC)
2025-10-14 (8 months ago)
Launch vehicle
FALCON 9
Launch site
Air Force Eastern Test Range (AFETR)
Object type
Payload
Rocket body
Debris
Shape & HBR
Box + 2 Pan, 3.4 m
Radar Cross Section
2.326 m², Large (>1 m²)

Expand to show TLE details & history
Last TLE update: 14 hours ago

TLE from 14 hours ago
0 KUIPER-00123
1 65952U 25228F   26171.27047881  .00000338  00000-0  73328-4 0  9991
2 65952  51.8989 269.4648 0000394  92.8878 267.2129 14.79928260 38385
Epoch: 2026-06-20T06:29Z
TLE epoch observation values (Epoch: 2026-06-20T06:29:29.369Z)
Latitude
-0.00004°
Longitude
-96.39511°
Altitude
630.311 km
Speed
7.544 km/s
True Right ascension
17h 57m 51s
True Declination
0° 00' 00"
Sunlit
Object was in full shadow at epoch
Visualization orbit readout
Latitude
Unknown
Longitude
Unknown
Altitude
Unknown
Speed
Unknown
Apparent Right ascension
Unknown
Apparent Declination
Unknown
Sunlit
N/A
Visualization observer readout
Local Sidereal Time
07:12:39
Azimuth
Unknown
Elevation
Unknown
Doppler factor
Unknown
Orbital elements
Apogee altitude
630.278 km
Perigee altitude
629.726 km
Semi-major axis
7,008.139 km
Eccentricity
0.00004
Inclination
51.8989°
RAAN
269.4648°
Arg. of periapsis
92.8878°
True anomaly
267.20839°
Mean anomaly
267.2129°
Eccentric anomaly
267.21065°
Mean motion
3.69947 °/min
Orbital period
97.31 mins
BSTAR
0.000073328
Loading maneuver chart data...
Computing Atmospheric mass density...
Loading historical data...
Loading historical data...
Loading historical data...
Loading historical data...
Loading historical data...
Loading historical data...
Loading historical data...

Documentation

Showing up to 5 results
|